This demonstration page uses our WeatherBlox Daily Observations layout. Learn more.

Left ArrowRight Arrow

Hourly Observations for May 9, 2015

Temp ( °F °C ) Dew Point ( °F °C ) Humidity (%) Winds ( mph kmh ) Pressure ( in mb ) Visibility ( mi km ) Precip ( " mm )
12:53 am 00:53 Clear 62 16.7 47 8.3 58 58 Calm 29.97 1015 10 16 0.00 0.00
1:53 am 01:53 Clear 60 15.6 47 8.3 62 62 N 3 6 29.98 1015 10 16 0.00 0.00
2:53 am 02:53 Clear 58 14.4 47 8.3 67 67 Calm 30.00 1016 10 16 0.00 0.00
3:53 am 03:53 Clear 56 13.3 47 8.3 72 72 Calm 30.01 1016 10 16 0.00 0.00
4:53 am 04:53 Clear 54 12.2 46 7.8 75 75 Calm 30.03 1017 10 16 0.00 0.00
5:53 am 05:53 Clear 53 11.7 46 7.8 77 77 Calm 30.04 1017 10 16 0.00 0.00
6:53 am 06:53 Sunny 56 13.3 47 8.3 72 72 Calm 30.05 1018 10 16 0.00 0.00
7:53 am 07:53 Sunny 61 16.1 48 8.9 63 63 Calm 30.06 1018 10 16 0.00 0.00
8:53 am 08:53 Sunny 66 18.9 47 8.3 50 50 Calm 30.06 1018 10 16 0.00 0.00
9:53 am 09:53 Sunny 68 20 46 7.8 45 45 Calm 30.05 1018 10 16 0.00 0.00
10:53 am 10:53 Sunny 71 21.7 46 7.8 41 41 Calm 30.03 1017 10 16 0.00 0.00
11:53 am 11:53 Sunny 76 24.4 45 7.2 33 33 VRB 3 6 30.01 1016 10 16 0.00 0.00
12:53 pm 12:53 Sunny 80 26.7 41 5 25 25 ENE 5 7 29.98 1015 10 16 0.00 0.00
1:53 pm 13:53 Sunny 82 27.8 39 3.9 22 22 Calm 29.95 1014 10 16 0.00 0.00
2:53 pm 14:53 Sunny 84 28.9 38 3.3 19 19 W 3 6 29.93 1013 10 16 0.00 0.00
3:53 pm 15:53 Sunny 86 30 39 3.9 19 19 VRB 5 7 29.89 1012 10 16 0.00 0.00
4:53 pm 16:53 Sunny 86 30 40 4.4 20 20 Calm 29.87 1012 10 16 0.00 0.00
5:53 pm 17:53 Sunny 87 30.6 41 5 20 20 WSW 9 15 29.87 1011 10 16 0.00 0.00
6:53 pm 18:53 Sunny 85 29.4 41 5 21 21 WSW 7 11 29.86 1011 10 16 0.00 0.00
7:53 pm 19:53 Sunny 82 27.8 42 5.6 24 24 SSW 6 9 29.87 1011 10 16 0.00 0.00
8:53 pm 20:53 Clear 75 23.9 49 9.4 40 40 SSE 10 17 29.89 1012 10 16 0.00 0.00
9:53 pm 21:53 Clear 72 22.2 50 10 46 46 S 5 7 29.93 1013 10 16 0.00 0.00
10:53 pm 22:53 Clear 72 22.2 49 9.4 44 44 Calm 29.93 1014 10 16 0.00 0.00
11:53 pm 23:53 Clear 67 19.4 50 10 55 55 Calm 29.95 1014 10 16 0.00 0.00

Powered by AerisWeather